Hourly Weather Roundup
Issued by NWS Central Illinois

Home | Current Version | Previous Version | Text Only | Print | Product List | Glossary On
Versions: 1 2 3 4 5 6 7 8 9 10 11 12 13 14 15 16 17 18 19 20 21 22 23 24 25 26 27 28 29 30 31 32 33 34 35 36 37 38 39 40 41 42 43 44 45 46 47 48 49 50
000
NZUS43 KILX 220210
HWRILX

Area Weather Roundup
National Weather Service Lincoln IL
800 PM CST WED FEB 21 2018

NOTE:  "FAIR" indicates few or no clouds below 12,000 feet, with
       no sigificant weather and/or obstructions to visibility.


CITY           SKY/WX    TMP DP  RH WIND       PRES   REMARKS
Bloomington    FAIR      29  26  89 NE17      30.58R WCI  17
Champaign      CLOUDY    32  29  88 NE15      30.55F WCI  22
Danville       CLOUDY    32  29  90 NE13      30.53S WCI  22
Decatur        CLOUDY    32  29  88 NE13      30.55R WCI  22
Effingham      CLOUDY    35  35 100 N7        30.54F FOG     WCI  29
Flora          DRIZZLE   37  36  94 N10       30.51F WCI  30
Galesburg      FAIR      27  24  86 NE8       30.60S WCI  19
Jacksonville   CLOUDY    29  27  90 NE12      30.55F WCI  20
Lacon          FAIR      28  24  84 N6        30.60F WCI  22
Lawrenceville  LGT RAIN  39  37  92 N15       30.49R WCI  31
Litchfield     CLOUDY    31  30  95 N6        30.52F WCI  26
$$


CITY           SKY/WX    TMP DP  RH WIND       PRES   REMARKS
Lincoln        CLOUDY    32  31  94 N8        30.58R WCI  25
Macomb         FAIR      28  25  87 NE10      30.61S WCI  18
Mattoon        MIX PCPN  33  32  96 NE14      30.53R FOG     WCI  23
Mt Carmel AP   DRIZZLE   38  37  96 N13       30.48R WCI  30
Olney-Noble AP DRIZZLE   36  34  93 N9        30.50F WCI  29
Paris AP       CLOUDY    33  33  98 NE8       30.55S FOG     WCI  27
Peoria         FAIR      29  24  82 NE3       30.60S
Pontiac        FAIR      31  29  94 NE7       30.61S WCI  24
Rantoul        CLOUDY    33  30  90 NE14      30.55F WCI  23
Robinson       DRIZZLE   36  34  93 N12       30.52R WCI  28
Springfield    CLOUDY    32  29  88 N10       30.57F WCI  24
Taylorville    CLOUDY    32  31  94 CALM      30.55F
$$

...REGIONAL REPORTS...


CITY           SKY/WX    TMP DP  RH WIND       PRES   REMARKS
Chicago O`Hare CLOUDY    29  20  69 NE7       30.63R WCI  22
Kankakee       FAIR      30  25  81 NE14      30.61S WCI  20
Moline         FAIR      28  18  66 NE9       30.60F WCI  19
Mount Sterling CLOUDY    28  25  91 NE3       30.54F
Mount Vernon   LGT RAIN  36  36 100 NE8       30.49S FOG     WCI  29
Pittsfield     CLOUDY    29  27  90 NE6       30.55F WCI  23
Quincy         CLOUDY    28  24  85 NE13      30.54F WCI  17
Rockford       CLOUDY    25  16  68 NE9       30.66S WCI  15
$$


CITY           SKY/WX    TMP DP  RH WIND       PRES   REMARKS
Burlington     FAIR      27  19  72 NE9       30.58F WCI  18
Cedar Rapids   FAIR      24  13  62 NE10      30.58F WCI  14
Des Moines     CLOUDY    24  16  71 NE9       30.59F WCI  14
Kirksville     FAIR      27  21  78 NE10      30.56R WCI  17
Ottumwa        FAIR      26  16  65 NE9       30.58S WCI  17
St Louis       CLOUDY    31  30  96 NE12      30.50F WCI  22
$$


CITY           SKY/WX    TMP DP  RH WIND       PRES   REMARKS
Terre Haute    MIX PCPN  36  35  96 N10       30.52R FOG     WCI  28
Evansville     LGT RAIN  42  41  96 N6        30.43S
Indianapolis   LGT RAIN  37  35  92 N10       30.50R WCI  30
Lafayette      CLOUDY    34  31  88 NE10      30.57R WCI  26
Madison        MOCLDY    23  12  62 N3        30.65F
Milwaukee      CLOUDY    27  15  61 N6        30.65S WCI  20
$$






USA.gov is the U.S. government's official web portal to all federal, state and local government web resources and services.